| time (UTC) | temp F | wind direction | speed MPH | gust MPH | rain 1hr in | rain 24hr in | rain mn in | humidity % | barometer mb |
| 20260508203008 | 71 | 254 | 0.0 | 3.0 | 0.00 | 0.00 | 0.00 | 72 | 1004.2 |
| 20260508201504 | 71 | 238 | 0.0 | 6.0 | 0.00 | 0.00 | 0.00 | 72 | 1004.3 |
| 20260508200111 | 70 | 252 | 0.0 | 5.0 | 0.00 | 0.00 | 0.00 | 72 | 1004.4 |
| 20260508194602 | 70 | 260 | 1.0 | 5.0 | 0.00 | 0.00 | 0.00 | 72 | 1004.5 |
| 20260508193050 | 69 | 264 | 0.0 | 6.0 | 0.00 | 0.00 | 0.00 | 72 | 1004.7 |
| 20260508191552 | 68 | 239 | 0.0 | 3.0 | 0.00 | 0.00 | 0.00 | 71 | 1004.8 |
| 20260508190041 | 67 | 252 | 0.0 | 4.0 | 0.00 | 0.00 | 0.00 | 68 | 1005.0 |
| 20260508184537 | 67 | 249 | 0.0 | 1.0 | 0.00 | 0.00 | 0.00 | 69 | 1005.2 |
| 20260508183033 | 67 | 252 | 0.0 | 1.0 | 0.00 | 0.00 | 0.00 | 70 | 1005.2 |
| 20260508181529 | 67 | 254 | 0.0 | 0.0 | 0.00 | 0.00 | 0.00 | 69 | 1005.2 |
| 20260508180024 | 66 | 254 | 1.0 | 3.0 | 0.00 | 0.00 | 0.00 | 69 | 1005.4 |
| 20260508174526 | 65 | 242 | 0.0 | 1.0 | 0.00 | 0.00 | 0.00 | 65 | 1005.5 |
| 20260508173015 | 65 | 243 | 0.0 | 1.0 | 0.00 | 0.00 | 0.00 | 61 | 1005.6 |
| 20260508171522 | 64 | 242 | 0.0 | 0.0 | 0.00 | 0.00 | 0.00 | 59 | 1005.7 |
| 20260508170006 | 64 | 242 | 0.0 | 0.0 | 0.00 | 0.00 | 0.00 | 57 | 1005.5 |
| 20260508164502 | 63 | 242 | 0.0 | 1.0 | 0.00 | 0.00 | 0.00 | 56 | 1005.4 |
| 20260508163100 | 63 | 242 | 0.0 | 1.0 | 0.00 | 0.00 | 0.00 | 52 | 1005.4 |
| 20260508161552 | 63 | 242 | 0.0 | 1.0 | 0.00 | 0.00 | 0.00 | 49 | 1005.4 |
| 20260508160052 | 62 | 315 | 0.0 | 1.0 | 0.00 | 0.00 | 0.00 | 42 | 1005.4 |
| 20260508154549 | 62 | 57 | 0.0 | 2.0 | 0.00 | 0.00 | 0.00 | 39 | 1005.4 |
| 20260508153040 | 62 | 65 | 0.0 | 4.0 | 0.00 | 0.00 | 0.00 | 36 | 1005.4 |
| 20260508151536 | 61 | 48 | 0.0 | 1.0 | 0.00 | 0.00 | 0.00 | 30 | 1005.5 |
| 20260508150031 | 61 | 48 | 0.0 | 2.0 | 0.00 | 0.00 | 0.00 | 29 | 1005.5 |
| 20260508144526 | 61 | 48 | 0.0 | 0.0 | 0.00 | 0.00 | 0.00 | 27 | 1005.5 |
| 20260508143022 | 61 | 48 | 0.0 | 0.0 | 0.00 | 0.00 | 0.00 | 27 | 1005.7 |
| 20260508141520 | 61 | 48 | 0.0 | 1.0 | 0.00 | 0.00 | 0.00 | 27 | 1005.5 |
| 20260508140019 | 60 | 46 | 0.0 | 0.0 | 0.00 | 0.00 | 0.00 | 27 | 1005.4 |
| 20260508134509 | 60 | 46 | 0.0 | 0.0 | 0.00 | 0.00 | 0.00 | 27 | 1005.4 |
| 20260508133005 | 60 | 46 | 0.0 | 3.0 | 0.00 | 0.00 | 0.00 | 28 | 1005.2 |
| 20260508131601 | 60 | 61 | 0.0 | 4.0 | 0.00 | 0.00 | 0.00 | 32 | 1005.1 |
| 20260508130106 | 60 | 72 | 0.0 | 1.0 | 0.00 | 0.00 | 0.00 | 32 | 1005.0 |
| 20260508124554 | 60 | 72 | 0.0 | 1.0 | 0.00 | 0.00 | 0.00 | 34 | 1004.9 |
| 20260508123055 | 60 | 44 | 0.0 | 1.0 | 0.00 | 0.00 | 0.00 | 33 | 1004.7 |
| 20260508121545 | 60 | 44 | 0.0 | 2.0 | 0.00 | 0.00 | 0.00 | 32 | 1004.7 |
| 20260508120038 | 61 | 44 | 0.0 | 1.0 | 0.00 | 0.00 | 0.00 | 32 | 1004.7 |
| 20260508114542 | 61 | 44 | 0.0 | 2.0 | 0.00 | 0.00 | 0.00 | 33 | 1004.6 |
| 20260508113030 | 61 | 44 | 0.0 | 1.0 | 0.00 | 0.00 | 0.00 | 31 | 1004.5 |
| 20260508111525 | 61 | 44 | 0.0 | 0.0 | 0.00 | 0.00 | 0.00 | 28 | 1004.5 |
| 20260508110023 | 61 | 44 | 0.0 | 1.0 | 0.00 | 0.00 | 0.00 | 26 | 1004.4 |
| 20260508104516 | 61 | 42 | 0.0 | 0.0 | 0.00 | 0.00 | 0.00 | 24 | 1004.4 |
| 20260508103012 | 61 | 281 | 0.0 | 2.0 | 0.00 | 0.00 | 0.00 | 20 | 1004.4 |
| 20260508101514 | 61 | 279 | 0.0 | 2.0 | 0.00 | 0.00 | 0.00 | 14 | 1004.4 |
| 20260508100006 | 61 | 271 | 0.0 | 1.0 | 0.00 | 0.00 | 0.00 | 9 | 1004.5 |
| 20260508094606 | 61 | 269 | 0.0 | 0.0 | 0.00 | 0.00 | 0.00 | 4 | 1004.5 |
| 20260508093057 | 60 | 270 | 0.0 | 0.0 | 0.00 | 0.00 | 0.00 | 2 | 1004.5 |
| 20260508091558 | 60 | 269 | 0.0 | 0.0 | 0.00 | 0.00 | 0.00 | 2 | 1004.6 |
| 20260508090058 | 60 | 270 | 0.0 | 0.0 | 0.00 | 0.00 | 0.00 | 2 | 1004.7 |
| 20260508084541 | 60 | 270 | 0.0 | 0.0 | 0.00 | 0.00 | 0.00 | 6 | 1004.8 |
| 20260508083038 | 59 | 270 | 0.0 | 0.0 | 0.00 | 0.00 | 0.00 | 14 | 1004.8 |
| 20260508081540 | 60 | 270 | 0.0 | 0.0 | 0.00 | 0.00 | 0.00 | 19 | 1005.0 |
| 20260508080040 | 60 | 270 | 0.0 | 0.0 | 0.00 | 0.00 | 0.00 | 21 | 1005.1 |
| 20260508074532 | 60 | 270 | 0.0 | 0.0 | 0.00 | 0.00 | 0.00 | 23 | 1005.1 |
| 20260508073028 | 61 | 270 | 0.0 | 0.0 | 0.00 | 0.00 | 0.00 | 26 | 1005.2 |
| 20260508071530 | 61 | 270 | 0.0 | 0.0 | 0.00 | 0.00 | 0.00 | 30 | 1005.2 |
| 20260508070037 | 61 | 269 | 0.0 | 0.0 | 0.00 | 0.00 | 0.00 | 29 | 1005.1 |
| 20260508064529 | 61 | 270 | 0.0 | 0.0 | 0.00 | 0.00 | 0.00 | 27 | 1005.1 |
| 20260508063015 | 61 | 270 | 0.0 | 0.0 | 0.00 | 0.00 | 0.00 | 23 | 1005.1 |
| 20260508061516 | 61 | 270 | 0.0 | 0.0 | 0.00 | 0.00 | 0.00 | 19 | 1005.0 |
| 20260508060013 | 60 | 270 | 0.0 | 0.0 | 0.00 | 0.00 | 0.00 | 16 | 1004.9 |
| 20260508054502 | 60 | 270 | 0.0 | 0.0 | 0.00 | 0.00 | 0.00 | 21 | 1005.0 |
| 20260508053058 | 60 | 270 | 0.0 | 0.0 | 0.00 | 0.00 | 0.00 | 22 | 1005.0 |
| 20260508051555 | 60 | 270 | 0.0 | 0.0 | 0.00 | 0.00 | 0.00 | 23 | 1005.0 |
| 20260508050052 | 60 | 270 | 0.0 | 1.0 | 0.00 | 0.00 | 0.00 | 22 | 1004.9 |
| 20260508044551 | 60 | 271 | 0.0 | 0.0 | 0.00 | 0.00 | 0.00 | 25 | 1004.8 |
| 20260508043044 | 60 | 271 | 0.0 | 0.0 | 0.00 | 0.00 | 0.00 | 30 | 1004.7 |
| 20260508041538 | 60 | 271 | 0.0 | 0.0 | 0.00 | 0.00 | 0.00 | 38 | 1004.4 |
| 20260508040035 | 60 | 271 | 0.0 | 0.0 | 0.00 | 0.00 | 0.00 | 43 | 1004.3 |
| 20260508034532 | 60 | 272 | 0.0 | 0.0 | 0.00 | 0.00 | 0.00 | 52 | 1004.0 |
| 20260508033023 | 61 | 273 | 0.0 | 1.0 | 0.00 | 0.00 | 0.00 | 55 | 1003.8 |
| 20260508031518 | 61 | 273 | 0.0 | 1.0 | 0.00 | 0.00 | 0.00 | 61 | 1003.6 |
| 20260508030022 | 62 | 254 | 0.0 | 2.0 | 0.00 | 0.00 | 0.00 | 69 | 1003.6 |
| 20260508024516 | 63 | 256 | 0.0 | 2.0 | 0.00 | 0.00 | 0.00 | 72 | 1003.3 |
| 20260508023006 | 63 | 252 | 0.0 | 0.0 | 0.00 | 0.00 | 0.00 | 73 | 1003.2 |
| 20260508021500 | 64 | 249 | 0.0 | 3.0 | 0.00 | 0.00 | 0.00 | 73 | 1003.1 |
| 20260508020109 | 64 | 247 | 0.0 | 4.0 | 0.00 | 0.00 | 0.00 | 73 | 1003.0 |
| 20260508014559 | 65 | 263 | 0.0 | 4.0 | 0.00 | 0.00 | 0.00 | 74 | 1002.9 |
| 20260508013059 | 66 | 236 | 0.0 | 2.0 | 0.00 | 0.00 | 0.00 | 73 | 1002.8 |
| 20260508011546 | 67 | 251 | 0.0 | 5.0 | 0.00 | 0.00 | 0.00 | 72 | 1002.8 |
| 20260508010039 | 68 | 244 | 0.0 | 5.0 | 0.00 | 0.00 | 0.00 | 72 | 1002.8 |
| 20260508004535 | 68 | 246 | 2.0 | 8.0 | 0.00 | 0.00 | 0.00 | 71 | 1002.8 |
| 20260508003032 | 69 | 254 | 1.0 | 7.0 | 0.00 | 0.00 | 0.00 | 70 | 1002.8 |
| 20260508001540 | 69 | 239 | 0.0 | 5.0 | 0.00 | 0.00 | 0.00 | 70 | 1002.8 |
| 20260508000021 | 69 | 258 | 1.0 | 6.0 | 0.00 | 0.00 | 0.00 | 70 | 1002.8 |
| 20260507234517 | 69 | 261 | 0.0 | 4.0 | 0.00 | 0.00 | 0.00 | 70 | 1002.9 |
| 20260507233022 | 69 | 255 | 0.0 | 6.0 | 0.00 | 0.00 | 0.00 | 72 | 1003.0 |
| 20260507231511 | 69 | 250 | 2.0 | 9.0 | 0.00 | 0.00 | 0.00 | 71 | 1003.1 |
| 20260507230015 | 70 | 250 | 1.0 | 9.0 | 0.00 | 0.00 | 0.00 | 70 | 1003.1 |
| 20260507224602 | 70 | 248 | 0.0 | 5.0 | 0.00 | 0.00 | 0.00 | 71 | 1003.1 |
| 20260507223058 | 70 | 237 | 0.0 | 5.0 | 0.00 | 0.00 | 0.00 | 70 | 1003.2 |
| 20260507221551 | 70 | 240 | 0.0 | 9.0 | 0.00 | 0.00 | 0.00 | 69 | 1003.3 |
| 20260507220047 | 71 | 242 | 1.0 | 8.0 | 0.00 | 0.00 | 0.00 | 68 | 1003.4 |
| 20260507214546 | 70 | 259 | 0.0 | 6.0 | 0.00 | 0.00 | 0.00 | 70 | 1003.6 |
| 20260507213044 | 70 | 250 | 0.0 | 9.0 | 0.00 | 0.00 | 0.00 | 70 | 1003.7 |
| 20260507211545 | 69 | 252 | 1.0 | 8.0 | 0.00 | 0.00 | 0.00 | 71 | 1003.8 |
| 20260507210029 | 69 | 236 | 2.0 | 8.0 | 0.00 | 0.00 | 0.00 | 71 | 1004.0 |
| 20260507204524 | 69 | 217 | 2.0 | 10.0 | 0.00 | 0.00 | 0.00 | 71 | 1004.1 |